Voltar ao catálogo

FALCON HEAVY R/B

AtivoGEO
NORAD 54221·ROCKET BODY·🇺🇸 United States

Lançado Nov 1, 2022 de Cape Canaveral Space Force Station

Loading…

TLE

AtualizadoSource: Space-Track

Época: Sep 14, 2026, 00:35 UTC

1 54221U 22144C   26257.02470974 -.00000012  00000-0  00000-0 0  9996
2 54221   6.1961  62.4063 0056073 217.4043 142.3998  0.98105358 12437

Acompanhe FALCON HEAVY R/B em tempo real com AllMySat

Download on the App Store